Regional Weather Roundup
Issued by NWS

Home | Current Version | Previous Version | Text Only | Print | Product List | Glossary Off
Versions: 1 2 3 4 5 6 7 8 9 10 11 12 13 14 15 16 17 18 19 20 21 22 23 24 25 26 27 28 29 30 31 32 33 34 35 36 37 38 39 40 41 42 43 44 45 46 47 48 49 50

000
ASUS43 KMKX 032000
RWRWI

WISCONSIN REGIONAL WEATHER ROUNDUP
NATIONAL WEATHER SERVICE MILWAUKEE/SULLIVAN WI
200 PM CST SAT DEC 03 2016

NOTE: "FAIR" INDICATES FEW OR NO CLOUDS BELOW 12,000 FEET WITH NO
SIGNIFICANT WEATHER AND/OR OBSTRUCTIONS TO VISIBILITY.

WIZ001-002-006>008-014>016-023>028-032100-
NORTHWEST WISCONSIN

CITY           SKY/WX    TMP DP  RH WIND       PRES   REMARKS
SUPERIOR ARPT  CLOUDY    31  24  75 CALM      30.24F
ASHLAND        CLOUDY    31  24  75 SW3       30.26S
HAYWARD        CLOUDY    30  20  66 CALM      30.23F
SIREN          CLOUDY    31  21  67 CALM      30.24F
CUMBERLAND     CLOUDY    30  21  69 CALM      30.23F
RICE LAKE      CLOUDY    30  24  77 CALM      30.25F
CHETEK         CLOUDY    29  25  82 S3        30.25F
LADYSMITH      CLOUDY    30  25  81 CALM      30.25F
EAU CLAIRE     NOT AVBL
MENOMONIE      CLOUDY    32  22  65 E3        30.26F
NEW RICHMOND   CLOUDY    31  22  68 SE3       30.24S
OSCEOLA        CLOUDY    32  22  65 SE3       30.26F
$$

WIZ003>005-009-010-017-018-032100-
NORTH CENTRAL WISCONSIN

CITY           SKY/WX    TMP DP  RH WIND       PRES   REMARKS
MANITOWISH WTR CLOUDY    29  22  77 CALM      30.22R
ARBOR VITAE    CLOUDY    31  25  80 SW3       30.22R
WOODRUFF       CLOUDY    31  25  80 SW3       30.22R
RHINELANDER    CLOUDY    29  22  75 SW3       30.24R
EAGLE RIVER    CLOUDY    29  20  67 SW5       30.21R WCI  24
LAND O LAKES   CLOUDY    30  23  76 CALM      30.24R
PHILLIPS       CLOUDY    28  24  86 CALM      30.23S
TOMAHAWK       CLOUDY    29  20  70 CALM      30.25R
MEDFORD        CLOUDY    28  21  73 CALM      30.23F
MERRILL        CLOUDY    29  21  72 CALM      30.26S
$$

WIZ029-030-035-036-043>047-032100-
CENTRAL WISCONSIN

CITY           SKY/WX    TMP DP  RH WIND       PRES   REMARKS
WAUSAU         CLOUDY    29  20  69 W7        30.25S WCI  22
MOSINEE        NOT AVBL
MARSHFIELD     CLOUDY    29  20  69 W3        30.25S
STEVENS POINT  CLOUDY    28  23  79 SW5       30.28R WCI  23
WAUPACA        CLOUDY    33  24  68 CALM      30.30R
WAUTOMA        CLOUDY    31  22  69 SW3       30.30S
WISC RAPIDS    CLOUDY    31  21  66 NW7       30.29S WCI  24
CAMP DOUGLAS   NOT AVBL
$$

WIZ011>013-019>022-031-037>040-048>050-032100-
NORTHEAST WISCONSIN

CITY           SKY/WX    TMP DP  RH WIND       PRES   REMARKS
ANTIGO         CLOUDY    28  22  78 W9        30.24S WCI  19
SHAWANO        CLOUDY    33  23  67 SW7       30.29R WCI  27
OCONTO         CLOUDY    33  24  70 W5        30.28R WCI  28
STURGEON BAY   CLOUDY    33  26  75 W8        30.28R WCI  26
GREEN BAY      CLOUDY    33  25  72 SW6       30.30R WCI  28
MANITOWOC      NOT AVBL
APPLETON       CLOUDY    30  21  69 VRB5      30.27R WCI  25
CLINTONVILLE   CLOUDY    32  23  69 NW6       30.29R WCI  26
OSHKOSH        CLOUDY    32  22  66 W6        30.30R WCI  26
$$

WIZ032>034-041-042-053>061-032100-
SOUTHWEST WISCONSIN

CITY           SKY/WX    TMP DP  RH WIND       PRES   REMARKS
LA CROSSE      CLOUDY    34  24  67 S7        30.29F WCI  28
SPARTA         CLOUDY    32  22  66 W5        30.29F WCI  27
VIROQUA        CLOUDY    30  26  83 CALM      30.26F
BOSCOBEL       CLOUDY    35  25  66 CALM      30.30F
PRAIRIE DU CHI CLOUDY    35  25  67 E3        30.30F
PLATTEVILLE    CLOUDY    34  27  76 CALM      30.29F
$$

WIZ056-057-062-063-064-067-068-032100-
SOUTH CENTRAL WISCONSIN

CITY           SKY/WX    TMP DP  RH WIND       PRES   REMARKS
REEDSBURG      CLOUDY    32  21  65 CALM      30.29F
BARABOO/DELLS  CLOUDY    32  20  62 W6        30.29S WCI  26
LONE ROCK      NOT AVBL
MINERAL POINT  CLOUDY    34  27  75 SW5       30.28F WCI  30
MADISON        FLURRIES  32  22  66 CALM      30.30F
MIDDLETON      CLOUDY    34  25  68 W3        30.30S
WATERTOWN      CLOUDY    31  23  73 CALM      30.31R
MONROE         CLOUDY    32  25  74 S7        30.28F WCI  26
JANESVILLE     CLOUDY    34  25  69 CALM      30.30F
$$

WIZ051-052-058>065-066-070>072-032100-
SOUTHEAST WISCONSIN

CITY           SKY/WX    TMP DP  RH WIND       PRES   REMARKS
MILWAUKEE      CLOUDY    33  23  66 SW9       30.32S WCI  25
WAUKESHA       NOT AVBL
MILWAUKEE/TIMM NOT AVBL
RACINE         CLOUDY    32  22  66 SW6       30.33F WCI  26
BURLINGTON     CLOUDY    31  23  73 CALM      30.32F
KENOSHA        CLOUDY    32  23  69 W10       30.31F WCI  24
FOND DU LAC    CLOUDY    32  21  64 SW7       30.30S WCI  26
SHEBOYGAN      CLOUDY    32  22  66 W5        30.29F WCI  27
WEST BEND      CLOUDY    32  23  69 W6        30.30S WCI  26
JUNEAU         CLOUDY    30  22  73 SW9       30.32R WCI  21
$$

LSZ147-162-032100-
LAKE SUPERIOR

STATION/POSITION TIME  TEMP    WIND        PRES    WAVE
                       AIR SEA DIR/SP/G            HT/PER
                 (UTC) (F)     (DEG/KT/KT) (MB)    (FT/S)
DEVILS ISLAND    1900   31     250/  8/  9 1025.2S
PORT WING        1930   31     210/  4/  6 1024.7S
SAXON HARBOR     1940   33     220/  3/  7 1024.4S
$$

LMZ867-665-643>646-032100-
LAKE MICHIGAN

STATION/POSITION TIME  TEMP    WIND        PRES    WAVE
                       AIR SEA DIR/SP/G            HT/PER
                 (UTC) (F)     (DEG/KT/KT) (MB)    (FT/S)
CHAMBERS ISLAND  1940   36     240/  4/  8 1024.0R
NORTHPORT PIER   1940   37     310/  7/ 10 1024.0R
SISTER BAY       1908   37     320/ 11/ 13   N/A
ALGOMA LAKESHORE 1951          250/  8/ 10   N/A
KEWAUNEE LAKESHO 1930   33     240/  6/  8 1025.0R
SHEBOYGAN LAKESH 1900   32     230/  6/  8 1026.8R
PORT WASHINGTON  1940   33     240/  5/  9 1027.4F
MILWAUKEE LAKESH 1930   33     220/  7/  8   N/A
S MID LAKE BUOY  1850   35 49  260/ 10/ 12 1027.0R   1/ 3
KENOSHA   LAKESH 1900   32     260/  9/ 11 1027.4
$$

TC  - TEMPERATURE IN CELSIUS
VSB - VISIBILITY IN STATUTE MILES
WCI - WIND CHILL INDEX
HX  - HEAT INDEX




USA.gov is the U.S. government's official web portal to all federal, state and local government web resources and services.